Location: Cottbus
(51.7000°N, 14.3000°E)
Time: 23:04:52
(UTC+01:00)

ISS - Visible Passes

Search period start: 28 November 2023 00:00
Search period end: 08 December 2023 00:00
Orbit: 416 x 418 km, 51.6° (Epoch: 28 November)

Date Brightness Start Highest point End Pass type
(mag) Time Alt. Az. Time Alt. Az. Time Alt. Az.
28 Nov -3.8 17:29:16 10° W 17:32:38 89° S 17:34:22 27° E visible
28 Nov -1.0 19:06:03 10° W 19:07:17 20° W 19:07:17 20° W visible
29 Nov -3.8 16:40:57 10° W 16:44:19 88° NNW 16:47:42 10° E visible
29 Nov -3.3 18:17:44 10° W 18:21:00 56° SSW 18:21:00 56° SSW visible
30 Nov -3.6 17:29:22 10° W 17:32:44 70° SSW 17:34:46 22° ESE visible
30 Nov -0.9 19:06:24 10° W 19:07:41 18° WSW 19:07:41 18° WSW visible
01 Dec -3.7 16:40:59 10° W 16:44:22 82° S 16:47:43 10° ESE visible
01 Dec -2.3 18:17:50 10° W 18:20:53 32° SSW 18:21:31 30° S visible
02 Dec -2.7 17:29:20 10° W 17:32:33 44° SSW 17:35:27 12° SE visible
02 Dec -0.6 19:07:23 10° WSW 19:08:23 12° SW 19:08:23 12° SW visible
03 Dec -3.1 16:40:50 10° W 16:44:09 58° SSW 16:47:27 10° ESE visible
03 Dec -1.0 18:18:07 10° W 18:20:24 17° SW 18:22:30 11° S visible
04 Dec -1.5 17:29:17 10° W 17:32:04 24° SSW 17:34:51 10° SSE visible
05 Dec -2.0 16:40:34 10° W 16:43:39 34° SSW 16:46:42 10° SE visible
06 Dec -0.5 17:29:45 10° WSW 17:31:15 12° SW 17:32:45 10° SSW visible
07 Dec -0.7 16:40:26 10° W 16:42:49 18° SW 16:45:11 10° S visible
